Location: Dominion City
(49.1330°N, 97.1500°W)
Time: 03:44:56
(UTC-05:00)

Daily predictions for brighter satellites

Satellite Brightness Start Highest point End
(mag) Time Altitude Azimuth Time Altitude Azimuth Time Altitude Azimuth
Cosmos 1689 Rocket 4.2 00:02:29 17° E 00:03:31 20° ENE 00:05:57 10° NNE
Geosat 4.3 00:00:50 10° NNE 00:05:51 69° WNW 00:10:51 10° SW
Cosmos 2221 2.6 00:05:16 10° N 00:09:35 64° ENE 00:11:18 34° SSE
Cosmos 1470 2.8 00:06:37 10° NNW 00:10:30 70° W 00:11:59 36° S
Cosmos 1340 2.6 00:09:25 39° S 00:10:42 72° E 00:14:30 10° NNE
Cosmos 1076 Rocket 4.5 00:09:33 27° ESE 00:10:45 32° E 00:14:33 10° NNE
NOSS 3-2 (C) 4.2 00:11:29 27° SSE 00:13:49 35° ESE 00:19:45 10° NE
Meteor 1-16 Rocket 4.2 00:10:53 10° N 00:16:31 79° ENE 00:19:34 29° SSE
ISS -2.6 00:14:58 10° W 00:18:13 54° N 00:21:26 10° ENE
Cosmos 1544 4.0 00:15:27 10° NNW 00:19:01 41° W 00:20:28 28° SW
H-2A R/B 3.5 00:16:38 15° SW 00:19:55 28° W 00:24:17 10° NW
Cosmos 1980 Rocket 4.2 00:16:17 10° N 00:20:39 22° NE 00:25:00 10° E
Cosmos 1850 Rocket 4.2 00:17:56 17° SSW 00:21:59 72° WNW 00:27:13 10° NNE
Cosmos 1655 Rocket 4.1 00:20:20 28° SSE 00:23:46 66° E 00:29:59 10° NNE
Cosmos 2278 3.8 00:19:22 10° NNW 00:25:03 72° ENE 00:28:14 27° SE
Cosmos 405 Rocket 3.8 00:25:50 28° ESE 00:26:27 29° E 00:29:45 10° NNE
SL-23 DEB 3.5 00:26:49 10° WSW 00:31:21 83° SSE 00:34:35 10° ENE
CZ-4C R/B 2.5 00:30:35 31° S 00:32:46 48° ESE 00:38:35 10° NE
Cosmos 1140 Rocket 4.3 00:27:55 10° SW 00:33:00 48° WNW 00:38:05 10° NNE
COSMOS 2406 3.7 00:27:51 10° SW 00:33:30 61° WNW 00:39:13 10° NNE
Cosmos 468 Rocket 3.9 00:29:41 10° NNW 00:34:59 84° WSW 00:37:21 34° SSE
Cosmos 1607 3.9 00:29:44 10° SW 00:35:59 85° NW 00:42:14 10° NE
Cosmos 2026 Rocket 3.9 00:37:00 29° S 00:40:21 87° E 00:46:27 10° N
Lacrosse 5 rocket 3.1 00:36:38 10° NW 00:40:26 33° NNE 00:44:25 10° E
Cosmos 1697 Rocket 3.8 00:35:27 10° NNW 00:40:47 40° NE 00:45:14 14° ESE
Cosmos 2195 Rocket 4.5 00:37:42 27° SSW 00:41:22 83° W 00:47:41 10° N
Cosmos 2228 Rocket 3.3 00:37:07 10° N 00:41:29 60° ENE 00:43:03 36° SE
Cosmos 1814 Rocket 4.0 00:38:23 10° NNW 00:43:40 81° WSW 00:46:02 34° SSE
Okean 3 Rocket 4.1 00:41:46 27° SW 00:43:56 54° WNW 00:48:18 10° N
Cosmos 2082 Rocket 3.3 00:45:38 24° SE 00:47:14 27° ESE 00:51:56 10° NE
Cosmos 1943 Rocket 4.3 00:44:45 10° WNW 00:47:36 14° W 00:50:27 10° SW
ATLAS 3B R/B 4.1 00:40:53 10° WSW 00:48:07 43° NNW 00:55:06 10° NE
Cosmos 1707 3.3 00:48:09 32° SW 00:49:40 52° WNW 00:53:32 10° N
Cosmos 1833 Rocket 4.0 00:50:36 21° SE 00:52:08 23° ESE 00:56:30 10° NE
Terra 4.1 00:49:34 10° WSW 00:52:11 15° W 00:54:48 10° NW
NOSS 3-2 (A) 3.5 00:52:41 24° SSW 00:56:38 74° SE 01:03:26 10° NE
Helios 1A Rocket 3.5 00:54:41 10° NNE 00:58:35 43° E 00:59:26 37° SE
COSMOS 2487 3.9 00:57:19 21° WSW 00:59:11 35° WNW 01:02:33 10° N
Lacrosse 5 2.0 00:59:06 10° NW 01:04:12 74° NNE 01:08:18 16° ESE
Cosmos 1656 3.9 00:58:34 10° NNW 01:04:18 68° ENE 01:07:36 26° SE
Cosmos 1408 Rocket 3.7 01:02:54 37° SSW 01:04:36 71° WNW 01:09:06 10° N
Cosmos 1486 Rocket 4.0 01:02:59 36° S 01:05:02 68° ESE 01:10:14 10° NNE
ALOS 2 2.7 01:05:18 41° SSW 01:06:41 64° W 01:11:04 10° NNW
Cosmos 1378 3.1 01:08:12 53° SSW 01:09:02 85° W 01:12:51 10° N
Cosmos 1674 4.3 01:10:04 22° ESE 01:10:46 23° E 01:13:46 10° NE
Cosmos 1763 Rocket 3.5 01:07:28 10° NNW 01:12:49 83° WSW 01:15:03 36° SSE
Meteor 1-24 Rocket 4.0 01:11:55 27° SSW 01:15:16 67° WNW 01:21:07 10° N
Cosmos 1818 4.1 01:10:53 10° NW 01:16:03 43° WSW 01:17:44 34° SSW
Cosmos 1151 Rocket 3.6 01:13:01 10° N 01:17:11 48° ENE 01:18:43 32° SE
CZ-2C R/B 3.4 01:12:54 10° NNE 01:18:09 41° E 01:20:21 28° SE
CZ-4B R/B 2.1 01:18:11 42° SW 01:18:46 46° W 01:22:22 10° NNW
Cosmos 1553 Rocket 4.4 01:17:39 10° NNW 01:23:50 55° W 01:27:02 29° SSW
SL-16 R/B 4.1 01:20:36 10° NNW 01:25:19 26° NE 01:30:02 10° E
Cosmos 1743 Rocket 3.6 01:31:33 41° SSW 01:33:02 75° WNW 01:37:32 10° N
H-2A R/B 3.1 01:30:28 10° N 01:34:08 43° WNW 01:35:29 30° WSW
In-Cosmos 22 4.2 01:32:40 35° S 01:35:10 86° E 01:40:55 10° NNE
Cosmos 1689 Rocket 3.7 01:35:33 27° W 01:35:35 27° W 01:38:25 10° NW
Cosmos 2322 Rocket 3.8 01:31:25 10° NNW 01:36:24 31° NE 01:41:21 10° ESE
Landsat 5 4.2 01:36:14 33° SW 01:37:02 36° W 01:40:50 10° NNW
Genesis I 3.8 01:39:37 10° NW 01:43:22 39° WSW 01:43:29 39° SW
Aureole 1 Rocket 3.4 01:43:07 10° NNW 01:47:38 83° ENE 01:50:44 28° SSE
Cosmos 2315 Rocket 4.0 01:41:58 10° N 01:48:21 90° N 01:51:39 30° S
Cosmos 1500 Rocket 3.5 01:48:34 42° SSW 01:49:56 72° W 01:54:17 10° N
Cosmos 1328 Rocket 4.5 01:47:04 10° NNW 01:51:04 36° W 01:52:18 30° SW
CENTAUR R/B 3.1 01:50:51 29° SSE 01:53:25 42° ESE 01:59:51 10° NE
Cosmos 1354 Rocket 4.0 01:51:04 34° SSW 01:53:27 89° WNW 01:58:47 10° NNE
Cosmos 2266 Rocket 4.1 01:50:26 30° SSW 01:53:50 74° W 02:00:17 10° N
Cosmos 841 Rocket 4.1 01:49:02 10° NW 01:53:59 43° WSW 01:55:42 32° SSW
COS B Rocket 4.3 01:52:55 10° NNE 01:54:23 19° ENE 01:54:23 19° ENE
ISS -3.1 01:51:37 10° WNW 01:54:53 69° NNE 01:58:09 10° E
Cosmos 1867 3.6 01:52:05 27° SW 01:55:10 81° NW 02:00:42 10° NE
Meteor 1-21 Rocket 4.3 01:54:39 32° SSW 01:57:26 73° WNW 02:03:06 10° N
Cosmos 1503 Rocket 4.0 01:56:13 33° SSW 01:58:40 85° WNW 02:04:01 10° NNE
Cosmos 332 Rocket 4.0 01:54:25 10° NNW 01:59:13 65° ENE 02:01:59 25° SE
USA 32 4.1 01:54:47 10° N 02:00:04 76° E 02:02:36 31° SSE
Cosmos 405 Rocket 4.4 02:01:04 19° WSW 02:02:32 24° WNW 02:05:41 10° NNW
NOSS 3-2 (C) 4.0 01:58:52 14° WSW 02:04:23 62° NW 02:11:16 10° NE
Cosmos 1908 3.6 02:01:38 10° NNW 02:05:22 49° W 02:06:06 42° SW
Cosmos 1980 Rocket 2.1 01:59:44 10° NNW 02:05:25 87° WSW 02:08:46 26° SSE
Cosmos 2360 Rocket 4.5 02:01:02 10° N 02:05:27 23° NE 02:09:52 10° E
ASTEX 1 3.7 02:02:44 10° NNE 02:07:39 58° E 02:09:56 30° SSE
PSLV R/B 3.9 02:06:37 42° S 02:07:58 77° WSW 02:12:09 10° NNW
Meteor 2-11 Rocket 4.4 02:05:14 10° N 02:11:26 88° E 02:14:58 27° S
Cosmos 2344 3.7 02:06:43 23° SW 02:12:09 86° SE 02:21:30 10° NE
Cosmos 1300 2.9 02:10:44 10° N 02:14:35 65° E 02:15:57 36° SSE
BREEZE-M DEB (TANK) 2.6 02:17:05 12° W 02:19:24 67° SSW 02:25:51 10° ESE
Lacrosse 5 rocket 1.4 02:15:50 10° NW 02:20:07 90° WNW 02:24:37 10° SE
CZ-4C R/B 3.3 02:16:01 10° WSW 02:21:23 45° NW 02:27:30 10° NE
Cosmos 724 4.3 02:18:16 26° SW 02:21:44 80° NW 02:27:41 10° NE
CZ-2C R/B 3.3 02:21:10 31° S 02:23:53 64° W 02:29:38 10° NNW
Cosmos 1441 Rocket 3.7 02:22:45 36° SW 02:24:01 52° WNW 02:27:52 10° N
Cosmos 1697 Rocket 3.2 02:19:30 10° NW 02:24:49 42° WSW 02:26:56 30° SSW
ATLAS CENTAUR R/B 4.3 02:22:29 10° NNW 02:26:23 23° NNE 02:30:06 10° E
Cosmos 1437 Rocket 3.5 02:23:57 10° NNW 02:27:34 35° W 02:28:19 32° WSW
PSLV R/B 4.5 02:23:53 10° NNE 02:28:16 42° E 02:30:25 25° SSE
Cosmos 1538 Rocket 4.0 02:23:07 10° NNW 02:28:23 80° ENE 02:32:03 20° SSE
Cosmos 2082 Rocket 2.6 02:27:27 23° SW 02:30:58 57° NW 02:36:36 10° NNE
Cosmos 1726 2.1 02:29:18 10° N 02:33:01 79° E 02:34:22 37° SSE
Cosmos 1833 Rocket 2.9 02:32:16 25° SW 02:35:36 65° WNW 02:41:14 10° NNE
Cosmos 2058 2.8 02:34:30 38° SSW 02:36:05 86° WNW 02:40:16 10° N
ATLAS 5 CENTAUR R/B 4.0 02:37:19 11° SE 02:39:42 15° ESE 02:42:31 10° ENE
Cosmos 1805 Rocket 3.6 02:39:27 34° SSW 02:41:19 77° WNW 02:45:48 10° N
Cosmos 1455 3.7 02:38:03 10° N 02:41:31 32° ENE 02:44:25 13° SE
Abrixas 2.4 02:42:00 58° SW 02:42:26 70° S 02:45:31 10° E
Cosmos 773 Rocket 4.3 02:37:25 10° NNW 02:42:33 63° ENE 02:47:30 11° SE
SL-23 DEB 3.9 02:40:53 10° WNW 02:44:09 58° N 02:47:22 10° E
SL-08 R/B 4.4 02:40:41 26° S 02:44:18 88° E 02:50:29 10° N
Cosmos 1674 4.0 02:45:01 24° WSW 02:46:18 29° WNW 02:49:39 10° N
Lacrosse 5 2.7 02:42:29 10° WNW 02:46:48 29° SW 02:47:24 28° SW
Cosmos 405 4.1 02:44:05 10° NNW 02:47:15 29° W 02:47:50 28° WSW
Cosmos 1633 Rocket 3.1 02:46:01 31° S 02:48:06 80° E 02:52:33 10° NNE
Cosmos 2242 Rocket 3.5 02:43:43 10° NNW 02:48:10 82° W 02:50:21 29° S
Cosmos 371 Rocket 3.3 02:44:52 10° NNW 02:49:43 69° WSW 02:52:28 25° S
Cosmos 1707 Rocket 4.0 02:47:26 10° NNW 02:51:37 45° W 02:53:14 31° SW
Cosmos 540 Rocket 4.2 02:47:44 10° NW 02:52:25 35° WSW 02:54:19 26° SW
Landsat 4 3.6 02:51:52 35° S 02:53:20 71° WSW 02:57:05 10° NNW
Cosmos 2151 4.0 02:52:36 24° WSW 02:54:25 35° WNW 02:58:21 10° N
Cosmos 2360 4.4 02:51:48 10° NW 02:57:20 52° WSW 03:00:40 23° S
CZ-2C R/B 3.7 02:53:20 10° N 02:58:22 36° WNW 03:01:52 17° WSW
Cosmos 1666 Rocket 3.6 02:56:44 31° SSW 02:58:43 68° W 03:03:04 10° N
Cosmos 1626 3.6 02:56:33 16° SE 02:58:51 30° E 03:02:11 10° NNE
Cosmos 2181 Rocket 4.4 02:58:44 10° N 03:04:50 60° ENE 03:10:58 10° SSE
USA 215 4.0 03:01:26 10° ENE 03:07:26 38° SE 03:11:25 20° S
Cosmos 1470 Rocket 3.8 03:06:48 23° S 03:09:29 67° E 03:13:53 10° NNE
SL-16 R/B 2.2 03:04:20 10° NNW 03:10:00 73° WSW 03:15:18 12° SSE
Cosmos 1437 3.6 03:10:41 29° WSW 03:11:49 39° WNW 03:15:00 10° N
Cosmos 1933 Rocket 3.7 03:11:10 23° S 03:13:51 72° E 03:18:16 10° NNE
BREEZE-M DEB (TANK) 2.3 03:07:39 10° W 03:14:27 87° SSW 03:17:04 10° E
SL-14 R/B 3.8 03:18:51 26° SW 03:20:37 44° WNW 03:24:20 10° N
JB-3 4.3 03:16:37 10° N 03:20:38 75° WNW 03:22:48 26° SSW
Cosmos 2322 Rocket 2.3 03:15:16 10° NW 03:20:47 57° WSW 03:25:26 14° S
AQUA 4.2 03:16:23 10° NNE 03:21:07 59° ESE 03:24:37 18° S
Cosmos 1869 3.3 03:20:35 10° N 03:24:35 83° ENE 03:27:40 16° SSE
Sich 1 3.7 03:23:24 22° SW 03:25:49 42° WNW 03:30:04 10° N
ISS -2.7 03:28:12 10° W 03:31:12 33° SSW 03:34:10 10° SSE
Cosmos 1271 Rocket 2.9 03:27:34 10° NNW 03:31:17 52° W 03:33:21 23° SSW
Cosmos 1703 3.5 03:30:05 24° SSW 03:32:16 56° WNW 03:36:11 10° N
Cosmos 2112 Rocket 4.0 03:30:29 10° NNW 03:35:43 88° WSW 03:40:56 10° SSE
USA 161 1.7 03:34:44 17° SSE 03:36:19 51° ENE 03:38:41 10° N
CZ-2D R/B 3.8 03:33:03 10° NE 03:37:29 27° E 03:41:56 10° SSE
ERS-2 2.3 03:37:39 10° N 03:41:21 61° WNW 03:43:39 21° SSW
Meteor 1-4 Rocket 3.3 03:37:52 10° NNW 03:41:25 39° W 03:43:29 21° SSW
Cosmos 968 Rocket 3.8 03:39:41 18° SW 03:43:21 54° WNW 03:48:27 10° NNE
CENTAUR R/B 3.2 03:38:01 12° WSW 03:43:57 55° NW 03:51:03 10° NE
Cosmos 1862 Rocket 4.0 03:40:49 10° NNW 03:45:08 47° W 03:48:14 17° SSW
Cosmos 1980 Rocket 3.9 03:45:26 10° WNW 03:48:35 15° W 03:50:29 13° WSW
EO 1 Del DPAF 3.8 03:45:57 10° SSE 03:49:48 62° ENE 03:53:42 10° N
NPP 3.7 03:44:47 10° N 03:50:10 70° WNW 03:54:33 16° SSW
Cosmos 2360 Rocket 2.2 03:44:31 10° NNW 03:50:11 85° WSW 03:55:50 10° SSE
SL-16 R/B 2.9 03:44:57 10° SSE 03:51:09 69° ENE 03:57:24 10° NNW
Okean O Rocket 4.2 03:49:06 10° NE 03:51:45 15° E 03:54:21 10° SE
Cosmos 1709 Rocket 4.1 03:49:55 15° SSW 03:55:19 71° WNW 04:01:33 10° N
USA 129 4.0 03:54:36 10° ESE 03:55:29 14° ENE 03:56:26 10° NNE
Lacrosse 5 rocket 2.8 03:55:50 10° W 03:58:59 19° SW 04:01:02 15° SSW
SL-08 R/B 4.1 03:57:20 15° SSW 04:00:56 37° W 04:05:30 10° NNW
Cosmos 1933 3.3 03:57:29 10° NNW 04:01:32 74° W 04:05:32 10° S
ATLAS CENTAUR R/B 1.7 04:01:24 10° NW 04:06:14 87° NE 04:10:39 10° SE
Cosmos 2322 3.8 04:04:46 10° NNW 04:10:26 63° WSW 04:16:04 10° SSE
Cosmos 2221 Rocket 3.7 04:08:01 10° NNW 04:12:29 63° W 04:16:57 10° S
Cosmos 2219 4.1 04:07:54 10° S 04:13:20 45° ESE 04:18:47 10° NE
Meteor 1-26 Rocket 4.2 04:08:19 10° NNW 04:13:55 88° E 04:19:26 10° S
IRS-1C 4.3 04:09:26 10° N 04:14:43 63° WNW 04:19:46 11° SSW
Cosmos 1869 Rocket 3.6 04:10:39 10° S 04:15:02 82° E 04:19:31 10° NNE
Spot 4 Rocket 4.1 04:10:57 10° NNE 04:16:08 79° WNW 04:21:16 10° SSW
Cosmos 2082 Rocket 4.5 04:13:00 10° WNW 04:16:23 16° NNW 04:19:47 10° N
Cosmos 1455 3.7 04:14:10 10° NW 04:17:05 21° W 04:19:27 13° SW
Abrixas 2.4 04:15:24 10° W 04:18:30 70° S 04:21:35 10° ESE
H-2A R/B 4.0 04:13:41 12° SW 04:18:46 27° SSE 04:38:43 10° ESE
BREEZE-M DEB (TANK) 3.7 04:11:42 10° W 04:21:18 63° SSW 04:24:44 10° ESE
Cosmos 1680 Rocket 4.3 04:17:47 10° NW 04:22:23 32° WSW 04:26:59 10° SSW
ATLAS 5 CENTAUR R/B 2.0 04:18:52 12° SW 04:23:28 85° SE 04:28:53 10° NE
Resurs 1-4 Rocket 2.5 04:18:23 10° NNE 04:23:42 65° ESE 04:28:59 10° S
BREEZE-M TANK 2.2 04:21:16 10° WSW 04:25:06 44° S 04:27:28 10° ESE
MTI 3.8 04:27:02 10° S 04:30:23 77° WSW 04:33:46 10° NNW
Cosmos 1346 3.9 04:29:11 12° SW 04:31:50 36° WNW 04:34:43 10° N
Cosmos 2333 Rocket 3.5 04:26:42 10° NNW 04:32:13 47° NE 04:37:44 10° SE
Cosmos 1626 3.7 04:31:18 10° SW 04:34:20 23° WNW 04:37:23 10° NNW
ARIANE 5 R/B 2.6 04:34:46 10° N 04:39:53 70° WNW 04:44:53 10° SSW
Cosmos 1703 Rocket 4.4 04:36:35 10° NNW 04:40:27 31° W 04:44:16 10° SSW
Cosmos 2292 Rocket 4.4 04:37:42 10° SW 04:40:35 27° WNW 04:44:05 10° N
CRYOSAT 2 4.5 04:36:10 10° N 04:41:01 64° W 04:45:49 10° SSW
COSMOS 2428 2.7 04:37:14 10° NNW 04:42:53 68° WSW 04:48:29 10° SSE
Cosmos 1892 3.9 04:40:35 10° SSE 04:44:16 43° E 04:47:57 10° NNE
Cosmos 1833 4.4 04:40:19 10° SW 04:46:02 67° WNW 04:51:47 10° NNE
IRS-1D 3.7 04:40:45 10° N 04:46:06 70° WNW 04:51:22 10° SSW
Cosmos 1733 Rocket 4.0 04:41:57 10° SSE 04:46:09 49° E 04:50:24 10° NNE
Coronas F rocket 4.2 04:46:59 10° SE 04:48:56 18° E 04:50:53 10° NE
USA 215 3.4 04:44:17 10° NE 04:50:52 83° NNW 04:57:25 10° WSW
Thor Agena Rocket 3.8 04:46:53 10° SSE 04:52:11 81° ENE 04:57:30 10° NNW
BREEZE-M DEB (TANK) 4.1 04:50:05 10° SW 04:58:19 34° SSE 05:01:27 10° E
